This is the latest recevied weather packets stored in our database for station/object K4ROM-1. If no packets are shown the sender has not sent any weather packets the latest 10 day(s).
| Time | Temp. | Humidity | Pressure | Rain* | Wind** | Luminosity | Snow |
|---|---|---|---|---|---|---|---|
| 1777921803 | 27.22° C | 28% | 1015.7 hPa | 0 mm | 0.89 m/s, 223° | - | - |
| 1777921204 | 27.22° C | 28% | 1016.3 hPa | 0 mm | 0.45 m/s, 137° | - | - |
| 1777920603 | 25° C | 32% | 1016.4 hPa | 0 mm | 0.45 m/s, 225° | - | - |
| 1777920004 | 24.44° C | 33% | 1016.3 hPa | 0 mm | 0.89 m/s, 256° | - | - |
| 1777919402 | 26.11° C | 31% | 1016.3 hPa | 0 mm | 1.34 m/s, 239° | - | - |
| 1777918803 | 26.11° C | 34% | 1016.4 hPa | 0 mm | 0 m/s | - | - |
| 1777918203 | 26.11° C | 32% | 1016.4 hPa | 0 mm | 0.45 m/s, 271° | - | - |
| 1777917603 | 25.56° C | 34% | 1017 hPa | 0 mm | 0 m/s | - | - |
| 1777917003 | 26.67° C | 30% | 1016.8 hPa | 0 mm | 0 m/s | - | - |
| 1777916403 | 25.56° C | 33% | 1016.6 hPa | 0 mm | 0 m/s | - | - |
| 1777915803 | 25° C | 31% | 1016.8 hPa | 0 mm | 0.45 m/s, 254° | - | - |
| 1777915203 | 25° C | 31% | 1017 hPa | 0 mm | 0 m/s | - | - |
| 1777914603 | 25.56° C | 32% | 1017.1 hPa | 0 mm | 0.45 m/s, 275° | - | - |
| 1777914003 | 22.78° C | 35% | 1017.2 hPa | 0 mm | 0 m/s | - | - |
| 1777913403 | 23.33° C | 36% | 1017.5 hPa | 0 mm | 1.34 m/s, 334° | - | - |
| 1777912803 | 22.78° C | 35% | 1017.8 hPa | 0 mm | 2.24 m/s, 244° | - | - |
| 1777912203 | 23.89° C | 34% | 1018.1 hPa | 0 mm | 2.24 m/s, 349° | - | - |
| 1777911603 | 23.89° C | 35% | 1018 hPa | 0 mm | 0.45 m/s, 187° | - | - |
| 1777911003 | 23.33° C | 38% | 1018.1 hPa | 0 mm | 0 m/s | - | - |
| 1777910403 | 22.78° C | 36% | 1018.1 hPa | 0 mm | 0.89 m/s, 267° | - | - |
| 1777909803 | 22.22° C | 36% | 1018.5 hPa | 0 mm | 1.34 m/s, 279° | - | - |
| 1777909203 | 22.22° C | 41% | 1018.3 hPa | 0 mm | 0.89 m/s, 289° | - | - |
| 1777908603 | 23.33° C | 37% | 1018.4 hPa | 0 mm | 0 m/s | - | - |
| 1777908003 | 22.22° C | 45% | 1018.4 hPa | 0 mm | 0 m/s | - | - |
| 1777907403 | 20.56° C | 45% | 1018.5 hPa | 0 mm | 0.45 m/s, 337° | - | - |
* Rain latest hour (hover to see other rain measurements)
** Current wind speed in m/s (hover to see current wind gust speed)